Track ONEWEB-0211 now! 10-day predictions ONEWEB-0211 is classified as:
1 48767U 21045A 22141.58335648 .00035555 00000-0 94062-1 0 9991 2 48767 87.9117 195.1500 0001651 94.1272 345.3485 13.15536972 1304